Regional Weather Roundup
Issued by NWS

Home | Current Version | Previous Version | Text Only | Print | Product List | Glossary On
Versions: 1 2 3 4 5 6 7 8 9 10 11 12 13 14 15 16 17 18 19 20 21 22 23 24 25 26 27 28 29 30 31 32 33 34 35 36 37 38 39 40 41 42 43 44 45 46 47 48 49 50
000
ASUS46 KSTO 200904
RWRCA

NORTHERN AND CENTRAL CA REGIONAL WEATHER ROUNDUP
NATIONAL WEATHER SERVICE SACRAMENTO CA
200 AM PDT WED AUG 20 2014

NOTE: FAIR INDICATES FEW OR NO CLOUDS BELOW 12,000 FEET WITH NO
SIGNIFICANT WEATHER AND/OR OBSTRUCTIONS TO VISIBILITY.

CAZ001-003-201000-
NORTHWEST AREA

CITY           SKY/WX    TMP DP  RH WIND       PRES   REMARKS
CRESCENT CITY  CLOUDY    57  56  96 S8        29.88S FOG
UKIAH          CLEAR     60  55  83 S7        29.85S
$$

CAZ006-505>513-201000-
BAY AREA

CITY           SKY/WX    TMP DP  RH WIND       PRES   REMARKS
SANTA ROSA     CLOUDY    60  56  86 VRB3      29.85F
SAN RAFAEL     N/A       62  MM  MM MISG
NAPA           CLOUDY    62  58  86 NW10      29.85S
CONCORD        CLOUDY    64  58  80 W9        29.84S
OAKLAND CITY   N/A       64  MM  MM MISG
OAKLAND        CLOUDY    65  57  75 W5        29.86S
SAN FRAN CITY  N/A       62  MM  84 MISG
SAN FRAN ARPT  PTCLDY    64  58  80 S5        29.85F
LIVERMORE      CLOUDY    64  58  80 W7        29.84F
HAYWARD        CLOUDY    68  61  78 W7        29.85F
REDWOOD CITY   N/A       MM  MM  MM MISG
MOFFETT ARPT   CLEAR     63  56  78 SE6       29.86S
SAN JOSE ARPT  CLOUDY    62  57  83 SE8       29.85F
$$
CAZ034-037-514>518-201000-
CENTRAL COAST

CITY           SKY/WX    TMP DP  RH WIND       PRES   REMARKS
WATSONVILLE    CLOUDY    64  56  75 W3        29.89S
SALINAS        CLOUDY    63  55  75 W5        29.88S
MONTEREY       CLOUDY    61  55  81 E3        29.88F
SAN LUIS OBISP CLOUDY    61  56  83 NW6       29.88F
SANTA MARIA    CLOUDY    63  56  78 NW3       29.89F
$$
CAZ015-016-201000-
NORTHERN SACRAMENTO VALLEY

CITY           SKY/WX    TMP DP  RH WIND       PRES   REMARKS
REDDING        CLEAR     74  56  53 MISG      29.79R
RED BLUFF      CLEAR     72  56  57 SE7       29.80R
OROVILLE       CLEAR     66  56  70 SE9       29.80R
$$
CAZ016>018-201000-
SOUTHERN SACRAMENTO VALLEY

CITY           SKY/WX    TMP DP  RH WIND       PRES   REMARKS
AUBURN         CLEAR     66  52  59 SE9       29.85S
BEALE AFB      CLEAR     64  56  77 S10       29.78R
LINCOLN        FAIR      63  54  72 SE16G22   29.79R
MARYSVILLE     CLEAR     63  57  81 SE15      29.79R
SAC INTL ARPT  CLEAR     62  55  77 SE14      29.77S
MATHER AIRPORT NOT AVBL
DOWNTOWN SAC   N/A       62  MM  MM MISG
SAC EXEC ARPT  CLEAR     62  57  83 S9G16     29.79F
VACAVILLE      CLEAR     64  54  69 SW8       29.77S
TRAVIS AFB     CLEAR     62  59  91 SW24G35   29.77S
$$
CAZ019>021-201000-
SAN JOAQUIN VALLEY

CITY           SKY/WX    TMP DP  RH WIND       PRES   REMARKS
STOCKTON       CLEAR     62  58  86 NE5       29.81S
MODESTO        CLEAR     64  57  78 N8        29.81R
MERCED         CLEAR     66  56  70 W5        29.81R
FRESNO         MOCLDY    71  57  61 N5        29.80S
HANFORD        CLEAR     71  54  54 NW9       29.80S
PORTERVILLE    CLEAR     66  43  42 SE5       29.83R
BAKERSFIELD    CLEAR     74  40  29 NE8       29.80F
$$
CAZ011-012-071-201000-
NORTHERN MOUNTAINS

CITY           SKY/WX    TMP DP  RH WIND       PRES   REMARKS
YREKA          CLEAR     67  51  56 N9        29.92S
MOUNT SHASTA   CLEAR     65  49  56 CALM      29.94S
ALTURAS        PTCLDY    64  41  42 NW3       29.96R
$$
CAZ011-012-071-201000-
SIERRA NEVADA MTNS

CITY           SKY/WX    TMP DP  RH WIND       PRES   REMARKS
BLUE CANYON    CLEAR     63  34  33 CALM      30.05S
TRUCKEE        CLEAR     46  36  66 CALM      30.07S
TAHOE VLY ARPT CLEAR     50  40  68 S3        30.08S
MAMMOTH LAKES  FAIR      57  34  41 W8        30.13R
$$



USA.gov is the U.S. government's official web portal to all federal, state and local government web resources and services.